Tracking 31030 objects as of 17-Jul-2025
HD Live streaming from Space Station
objects crossing your sky now

CZ-4C DEB

Track CZ-4C DEB now!
10-day predictions


NORAD ID: 44613
Int'l Code: 2017-072D
Perigee: 802.7 km
Apogee: 1,141.1 km
Inclination: 98.5 °
Period: 104.4 minutes
Semi major axis: 7342 km
RCS: Unknown
Launch date: November 14, 2017
Source: People's Republic of China (PRC)
Launch site: Jiuquan Satellite Launch Center, China (JSC)

Note: This is SATELLITE DEBRIS
Your satellite tracking list
Your tracking list is empty




NASA's NSSDC Master Catalog

Two Line Element Set (TLE):
1 44613U 17072D   25195.98589279  .00000375  00000-0  32664-3 0  9993
2 44613  98.5380 259.3618 0230374 183.4555 176.5019 13.79751663371432
Source of the keplerian elements: AFSPC